DateTimeUTC,F1_A11,F1_S11,BsB_S11,BsG_S11,BsR_S11,BbsB_S11,BbsG_S11,BbsR_S11,BaB_A11,BaG_A11,BaR_A11,T_S11,U_S11,P_S11,T1_A11
2020-03-06T00:00:00Z,00000380,21000600,,,,,,,,,,22.9,00.0,0624.2,30.8
2020-03-06T00:01:00Z,00000380,21000600,,,,,,,,,,22.9,00.0,0624.2,30.9
2020-03-06T00:02:00Z,00000380,21000600,,,,,,,,,,22.9,00.0,0624.2,30.9
2020-03-06T00:03:00Z,00000380,61000600,,,,,,,,,,23.0,00.0,0624.2,30.9
2020-03-06T00:04:00Z,00000380,41000600,0000.34,0000.20,-000.08,-000.08,0000.09,-000.27,-000.03,-000.33,0000.05,22.8,00.0,0625.1,30.8
2020-03-06T00:05:00Z,00000380,01000600,0000.22,-000.21,-000.30,-000.09,0000.28,-000.15,0000.16,0000.47,-000.01,22.7,00.0,0625.1,30.9
2020-03-06T00:06:00Z,00000380,01000600,0000.21,0000.45,-000.36,-000.32,-000.12,0000.20,-000.06,-000.18,0000.02,22.7,00.0,0625.1,30.8
2020-03-06T00:07:00Z,00000380,01000600,0000.59,0000.09,-000.07,0000.14,0000.11,0000.24,-000.11,-000.03,0000.08,22.6,00.0,0625.1,30.8
2020-03-06T00:08:00Z,00000380,01000600,-000.36,0000.15,-000.27,-000.32,0000.22,-000.67,-000.05,-000.08,-000.08,22.6,00.0,0625.1,30.9
2020-03-06T00:09:00Z,00000380,01000600,0000.71,0000.08,0000.37,0000.20,0000.16,0000.11,-000.03,-000.10,-000.02,22.6,00.0,0625.1,30.9
2020-03-06T00:10:00Z,00000380,01000600,0000.24,0000.28,-000.11,-000.04,0000.16,-000.16,-000.01,0000.09,-000.16,22.6,00.0,0625.1,30.9
2020-03-06T00:11:00Z,00000380,01000600,0000.80,0000.65,0000.01,0000.94,0000.21,-000.07,-000.02,0000.01,0000.24,22.6,00.0,0625.1,30.8
2020-03-06T00:12:00Z,00000380,01000600,0000.01,-000.33,-000.05,0000.06,0000.13,-000.48,-000.10,-000.04,-000.27,22.6,00.0,0625.1,30.8
2020-03-06T00:13:00Z,00000380,01000600,-000.04,-000.67,0000.11,0000.14,0000.34,-000.55,-000.08,-000.22,0000.12,22.6,00.0,0625.1,30.8
2020-03-06T00:14:00Z,00000380,01000600,-001.10,0000.05,-000.47,0000.36,0000.08,0000.05,-000.06,-000.29,-000.27,22.6,00.0,0625.1,30.8
2020-03-06T00:15:00Z,00000380,01000600,-000.34,0000.58,0000.02,-000.00,-000.21,-000.46,-000.01,-000.08,0000.14,22.6,00.0,0625.1,30.8
2020-03-06T00:16:00Z,00000380,01000600,0000.88,0000.29,0000.23,0000.39,-000.15,-000.27,0000.15,0000.32,-000.13,22.6,00.0,0625.1,30.8
2020-03-06T00:17:00Z,00000380,01000600,-000.71,0000.42,-000.06,0001.25,0000.35,-000.21,-000.07,0000.12,0000.16,22.6,00.0,0625.2,30.8
2020-03-06T00:18:00Z,00000380,01000600,0000.31,0000.05,-000.15,-000.36,-000.00,-000.13,0000.14,-000.02,0000.02,22.6,00.0,0625.1,30.8
2020-03-06T00:19:00Z,00000380,01000600,0001.36,0000.22,0000.01,0000.11,0000.09,0000.08,0000.16,0000.22,0000.17,22.6,00.0,0625.2,30.8
2020-03-06T00:20:00Z,00000380,01000600,0000.89,0000.30,-000.30,0000.56,0000.17,-000.28,-000.03,0000.16,-000.06,22.6,00.0,0625.1,30.8
2020-03-06T00:21:00Z,00000380,01000600,0000.51,0000.11,0000.49,0000.20,0000.13,-000.27,0000.02,-000.10,0000.07,22.6,00.0,0625.0,30.8
2020-03-06T00:22:00Z,00000380,01000600,0000.78,0001.11,0000.58,-000.27,0000.15,-000.56,-000.01,0000.08,-000.01,22.6,00.0,0625.0,30.9
2020-03-06T00:23:00Z,00000380,01000600,-000.93,0000.18,-000.77,0000.12,0000.34,0000.01,-000.10,-000.03,-000.03,22.6,00.0,0625.0,30.9
2020-03-06T00:24:00Z,00000380,01000600,-000.65,0000.46,0000.53,-000.26,-000.19,0000.20,0000.17,0000.19,0000.13,22.6,00.0,0625.0,30.9
2020-03-06T00:25:00Z,00000380,01000600,0000.53,-000.02,0000.21,0000.01,0000.14,-000.39,0000.13,-000.16,0000.00,22.5,00.0,0625.0,30.9
2020-03-06T00:26:00Z,00000380,01000600,0000.47,0000.16,0000.04,0000.47,-000.03,-000.14,-000.14,-000.01,-000.06,22.6,00.0,0625.0,30.8
2020-03-06T00:27:00Z,00000380,01000600,0000.25,-000.23,0000.27,0000.27,-000.06,-000.09,-000.16,-000.28,-000.05,22.5,00.0,0625.0,30.8
2020-03-06T00:28:00Z,00000380,01000600,-001.14,-000.01,0000.05,0000.12,-000.32,-000.35,-000.21,-000.37,-000.33,22.5,00.0,0625.0,30.8
2020-03-06T00:29:00Z,00000380,01000600,0000.60,0000.17,-000.17,0000.43,-000.57,-000.13,0000.02,0000.06,0000.12,22.5,00.0,0625.0,30.8
2020-03-06T00:30:00Z,00000380,01000600,-000.05,0000.11,-000.02,0000.63,-000.30,-000.10,0000.17,0000.13,-000.02,22.6,00.0,0625.0,30.8
2020-03-06T00:31:00Z,00000380,01000600,-001.02,0000.51,0000.22,-000.88,0000.37,-000.46,0000.02,0000.02,0000.03,22.6,00.0,0625.0,30.8
2020-03-06T00:32:00Z,00000380,01000600,-000.01,0000.37,0000.40,-000.35,-000.09,-000.02,-000.02,0000.18,0000.19,22.6,00.0,0625.1,30.8
2020-03-06T00:33:00Z,00000380,01000600,0001.79,0000.42,0000.08,0000.63,0000.37,-000.10,-000.03,-000.20,-000.20,22.6,00.0,0625.1,30.8
2020-03-06T00:34:00Z,00000380,01000600,0000.78,-000.43,-000.27,0000.72,-000.35,-000.42,0000.21,0000.32,0000.28,22.6,00.0,0625.1,30.8
2020-03-06T00:35:00Z,00000380,01000600,0000.51,0000.52,0000.58,-000.09,0000.56,0000.04,0000.17,0000.12,0000.17,22.6,00.0,0625.1,30.9
2020-03-06T00:36:00Z,00000380,01000600,0000.53,-000.10,-000.08,-000.21,-000.18,-000.17,-000.10,0000.05,-000.10,22.6,00.0,0625.0,30.8
2020-03-06T00:37:00Z,00000380,01000600,-000.18,0000.50,-000.03,0000.63,0000.38,-000.01,-000.07,-000.14,-000.04,22.6,00.0,0625.0,30.9
2020-03-06T00:38:00Z,00000380,01000600,0000.99,0000.22,-000.44,-000.81,0000.13,-000.26,0000.03,0000.20,-000.14,22.6,00.0,0625.0,30.9
2020-03-06T00:39:00Z,00000380,01000600,-001.06,0000.01,0000.02,-000.32,0000.36,0000.41,-000.11,-000.10,-000.10,22.6,00.0,0625.0,30.9
2020-03-06T00:40:00Z,00000380,01000600,0000.69,0000.06,-000.05,-000.05,-000.46,-000.30,-000.08,0000.02,0000.10,22.6,00.0,0625.0,30.9
2020-03-06T00:41:00Z,00000380,01000600,0000.62,0000.19,0000.08,0000.07,-000.15,0000.03,-000.05,-000.17,0000.03,22.6,00.0,0625.0,30.9
2020-03-06T00:42:00Z,00000380,01000600,-001.65,-000.23,0000.66,0000.52,0000.08,0000.08,-000.09,-000.29,-000.01,22.6,00.0,0625.0,30.9
2020-03-06T00:43:00Z,00000380,01000600,-000.24,-000.18,0000.35,-000.34,-000.13,-000.00,0000.03,-000.14,-000.15,22.6,00.0,0625.0,30.8
2020-03-06T00:44:00Z,00000380,01000600,0001.26,-000.29,0000.11,0000.24,0000.12,-000.12,0000.12,0000.09,-000.02,22.6,00.0,0625.0,30.8
2020-03-06T00:45:00Z,00000380,01000600,0000.82,0000.37,0000.23,0000.21,0000.45,-000.49,-000.07,0000.04,0000.16,22.6,00.0,0625.0,30.8
2020-03-06T00:46:00Z,00000380,01000600,0000.08,0000.43,0000.01,-000.35,-000.38,0000.21,0000.43,0000.50,0000.10,22.6,00.0,0624.9,30.8
2020-03-06T00:47:00Z,00000380,01000600,-002.52,0000.29,-000.19,0000.05,-000.18,-000.45,-000.16,-000.12,0000.10,22.6,00.0,0624.9,30.8
2020-03-06T00:48:00Z,00000380,01000600,0000.65,0000.38,0000.37,-000.29,-000.19,-000.10,0000.58,0000.41,0000.13,22.6,00.0,0624.9,30.8
2020-03-06T00:49:00Z,00000380,01000600,0000.61,0000.08,-000.11,-000.22,-000.16,0000.33,-000.04,0000.20,0000.08,22.6,00.0,0624.9,30.9
2020-03-06T00:50:00Z,00000380,01000600,0000.27,0000.05,-000.29,-000.06,-000.11,-000.31,-000.04,0000.02,-000.00,22.6,00.0,0624.8,30.9
2020-03-06T00:51:00Z,00000380,01000600,0000.21,-000.13,-000.13,0000.11,-000.33,-000.16,-000.07,0000.07,0000.12,22.6,00.0,0624.9,30.9
2020-03-06T00:52:00Z,00000380,01000600,0000.48,-000.01,0000.07,0001.08,0000.29,-000.57,0000.07,-000.14,-000.09,22.6,00.0,0624.9,30.9
2020-03-06T00:53:00Z,00000380,01000600,0000.97,-000.11,-000.26,-000.18,0000.11,-000.43,-000.07,-000.04,-000.06,22.6,00.0,0624.9,30.9
2020-03-06T00:54:00Z,00000380,01000600,-000.06,0000.10,-000.12,-000.67,-000.14,-000.23,-000.01,-000.05,-000.05,22.6,00.0,0624.9,30.9
2020-03-06T00:55:00Z,00000380,01000600,-000.18,0000.46,-000.49,0000.18,-000.04,0000.07,-000.10,-000.04,0000.05,22.6,00.0,0624.9,30.9
2020-03-06T00:56:00Z,00000380,01000600,0000.30,-000.18,0000.07,-000.35,0000.09,-000.37,-000.20,-000.10,-000.21,22.6,00.0,0624.9,30.9
2020-03-06T00:57:00Z,00000380,41000600,,,,,,,,,,22.6,00.0,0624.8,30.9
2020-03-06T00:58:00Z,00000380,61000600,,,,,,,,,,22.7,00.0,0623.9,30.9
2020-03-06T00:59:00Z,00000380,21000600,,,,,,,,,,22.8,00.0,0623.9,30.9
2020-03-06T01:00:00Z,00000380,21000600,,,,,,,,,,22.9,00.0,0623.9,30.9
2020-03-06T01:01:00Z,00000380,21000600,,,,,,,,,,22.9,00.0,0623.9,30.8
2020-03-06T01:02:00Z,00000380,21000600,,,,,,,,,,22.9,00.0,0623.9,30.8
2020-03-06T01:03:00Z,00000380,61000600,,,,,,,,,,22.9,00.0,0623.9,30.9
2020-03-06T01:04:00Z,00000380,41000600,0000.72,-000.06,-000.22,0000.58,-000.03,0000.41,-000.04,0000.12,-000.04,22.8,00.0,0624.7,30.9
2020-03-06T01:05:00Z,00000380,01000600,-000.16,0000.27,-000.23,-000.27,-000.06,0000.32,0000.04,-000.03,0000.14,22.8,00.0,0624.8,30.9
2020-03-06T01:06:00Z,00000380,01000600,0000.33,-000.01,-000.11,-000.02,-000.18,0000.03,0000.02,-000.12,-000.18,22.7,00.0,0624.8,30.9
2020-03-06T01:07:00Z,00000380,01000600,0000.26,0000.03,-000.36,-000.00,-000.19,-000.40,-000.02,0000.09,0000.09,22.7,00.0,0624.7,30.9
2020-03-06T01:08:00Z,00000380,01000600,0000.02,0000.32,-000.04,0000.28,-000.29,-000.16,0000.06,0000.17,0000.11,22.7,00.0,0624.7,30.9
2020-03-06T01:09:00Z,00000380,01000600,0000.37,0000.33,-000.04,0000.85,-000.09,0000.03,-000.17,-000.19,-000.11,22.7,00.0,0624.7,30.9
2020-03-06T01:10:00Z,00000380,01000600,-000.22,0000.28,0000.00,0000.90,0000.25,-000.48,0000.06,0000.19,0000.09,22.7,00.0,0624.7,30.9
2020-03-06T01:11:00Z,00000380,01000600,0000.28,0000.30,-000.25,-000.04,-000.06,-000.25,-000.06,0000.06,-000.02,22.6,00.0,0624.7,30.9
2020-03-06T01:12:00Z,00000380,01000600,0000.93,0000.65,-000.26,-000.18,-000.07,-000.35,-000.08,-000.36,-000.10,22.6,00.0,0624.7,30.9
2020-03-06T01:13:00Z,00000380,01000600,0000.13,-000.11,0000.22,-000.25,-000.28,-000.45,-000.08,-000.34,-000.13,22.6,00.0,0624.6,30.8
2020-03-06T01:14:00Z,00000380,01000600,0000.21,0000.38,0000.03,-000.26,-000.18,0000.15,0000.23,0000.22,0000.04,22.6,00.0,0624.6,30.8
2020-03-06T01:15:00Z,00000380,01000600,-000.92,0000.87,-000.41,-000.69,-000.16,-000.17,0000.06,0000.01,0000.15,22.6,00.0,0624.6,30.8
2020-03-06T01:16:00Z,00000380,01000600,0001.34,0000.93,-000.09,0000.66,-000.17,0000.17,0000.24,0000.65,0000.08,22.7,00.0,0624.6,30.8
2020-03-06T01:17:00Z,00000380,01000600,0000.98,0000.68,0000.32,0000.28,0000.23,0000.45,-000.10,-000.35,-000.05,22.7,00.0,0624.6,30.8
2020-03-06T01:18:00Z,00000380,01000600,-001.31,0000.43,0000.40,-000.32,-000.24,0000.22,0000.17,0000.31,0000.17,22.7,00.0,0624.6,30.8
2020-03-06T01:19:00Z,00000380,01000600,0000.09,-000.15,0000.11,-000.38,0000.25,-000.40,0000.02,0000.06,0000.04,22.7,00.0,0624.6,30.9
2020-03-06T01:20:00Z,00000380,01000600,-000.06,0000.52,0000.19,0000.06,-000.19,0000.38,-000.09,0000.04,0000.10,22.7,00.0,0624.6,30.9
2020-03-06T01:21:00Z,00000380,01000600,0000.71,-000.17,0000.31,0000.03,0000.29,-000.17,0000.14,-000.21,-000.09,22.6,00.0,0624.6,30.9
2020-03-06T01:22:00Z,00000380,01000600,0000.91,0000.16,0000.13,0000.08,-000.46,-000.19,-000.07,0000.18,0000.04,22.6,00.0,0624.6,30.9
2020-03-06T01:23:00Z,00000380,01000600,-000.26,0000.49,0000.60,-000.91,-000.06,-000.33,-000.08,-000.10,-000.02,22.6,00.0,0624.5,30.9
2020-03-06T01:24:00Z,00000380,01000600,0000.14,-000.39,-000.11,0000.43,0000.16,-000.30,0000.18,-000.00,0000.00,22.6,00.0,0624.5,30.9
2020-03-06T01:25:00Z,00000380,01000600,-000.85,0000.28,0000.00,-000.51,0000.27,0000.05,0000.04,0000.10,-000.02,22.6,00.0,0624.5,30.9
2020-03-06T01:26:00Z,00000380,01000600,0000.12,0000.50,-000.13,-001.15,0000.28,-000.05,0000.18,0000.05,-000.04,22.6,00.0,0624.5,30.9
2020-03-06T01:27:00Z,00000380,01000600,-000.05,0000.32,0000.10,0000.65,0000.45,0000.18,-000.28,-000.01,0000.13,22.6,00.0,0624.4,30.8
2020-03-06T01:28:00Z,00000380,01000600,0000.98,0000.17,-000.61,0000.07,0000.34,-000.12,0000.01,-000.46,-000.19,22.6,00.0,0624.5,30.8
2020-03-06T01:29:00Z,00000380,01000600,-000.95,0000.78,-000.15,-000.22,-000.15,-000.09,-000.06,0000.13,-000.09,22.6,00.0,0624.5,30.8
2020-03-06T01:30:00Z,00000380,01000600,-000.07,0000.71,-000.35,0000.00,-000.00,-000.31,-000.04,-000.16,0000.07,22.6,00.0,0624.5,30.8
2020-03-06T01:31:00Z,00000380,01000600,0000.93,0000.51,0000.40,0000.34,-000.33,0000.04,0000.16,0000.20,-000.07,22.6,00.0,0624.5,30.8
2020-03-06T01:32:00Z,00000380,01000600,-000.30,0001.28,-000.44,-000.06,-000.07,-000.33,-000.00,-000.05,0000.03,22.6,00.0,0624.6,30.8
2020-03-06T01:33:00Z,00000380,01000600,0000.83,0000.68,0000.02,-000.08,0000.08,0000.56,-000.03,0000.13,0000.19,22.6,00.0,0624.6,30.8
2020-03-06T01:34:00Z,00000380,01000600,-001.51,0000.22,-000.34,0000.32,0000.21,-000.46,0000.07,0000.08,-000.02,22.6,00.0,0624.5,30.8
2020-03-06T01:35:00Z,00000380,01000600,-000.03,-000.03,-000.44,0000.75,-000.15,0000.18,-000.05,-000.04,-000.07,22.6,00.0,0624.5,30.9
2020-03-06T01:36:00Z,00000380,01000600,-000.27,-000.14,-000.01,-000.09,0000.16,0000.04,0000.02,0000.06,0000.14,22.6,00.0,0624.5,30.8
2020-03-06T01:37:00Z,00000380,01000600,0001.15,0000.67,-000.18,0000.81,0000.01,0000.09,0000.16,0000.11,-000.11,22.6,00.0,0624.4,30.9
2020-03-06T01:38:00Z,00000380,01000600,0001.34,0000.16,0000.24,0000.09,0000.18,-000.13,-000.06,0000.06,0000.25,22.6,00.0,0624.4,30.9
2020-03-06T01:39:00Z,00000380,01000600,0000.17,0000.13,0000.03,0000.09,0000.39,0000.05,0000.23,0000.10,0000.09,22.5,00.0,0624.4,30.9
2020-03-06T01:40:00Z,00000380,01000600,0000.87,0000.20,-000.05,-000.27,-000.21,-000.12,-000.08,0000.21,0000.00,22.5,00.0,0624.4,30.8
2020-03-06T01:41:00Z,00000380,01000600,0000.71,0000.37,-000.25,-000.32,-000.03,-000.20,0000.11,0000.05,0000.02,22.5,00.0,0624.5,30.8
2020-03-06T01:42:00Z,00000380,01000600,0000.62,0000.01,-000.24,-000.77,0000.12,0000.14,-000.21,-000.38,-000.10,22.5,00.0,0624.4,30.8
2020-03-06T01:43:00Z,00000380,01000600,0000.80,0000.68,0000.34,0000.45,-000.10,-000.24,-000.03,-000.40,-000.39,22.5,00.0,0624.4,30.8
2020-03-06T01:44:00Z,00000380,01000600,-000.05,0000.38,-000.43,0000.38,-000.41,-000.38,-000.24,0000.10,0000.09,22.5,00.0,0624.5,30.8
2020-03-06T01:45:00Z,00000380,01000600,-000.42,0000.67,-000.25,-000.17,-000.10,0000.18,0000.09,-000.15,0000.03,22.6,00.0,0624.5,30.8
2020-03-06T01:46:00Z,00000380,01000600,-000.59,0000.26,0000.37,-000.65,-000.18,0000.17,0000.09,0000.08,0000.08,22.6,00.0,0624.5,30.8
2020-03-06T01:47:00Z,00000380,01000600,-000.63,0000.16,0000.35,0000.12,0000.20,-000.06,-000.11,0000.08,-000.02,22.6,00.0,0624.5,30.8
2020-03-06T01:48:00Z,00000380,01000600,-000.09,0000.09,0000.02,0000.73,0000.16,-000.06,0000.02,0000.18,0000.12,22.6,00.0,0624.5,30.8
2020-03-06T01:49:00Z,00000380,01000600,0000.04,0000.37,-000.12,0000.30,-000.07,0000.01,0000.08,0000.09,0000.02,22.6,00.0,0624.5,30.8
2020-03-06T01:50:00Z,00000380,01000600,-000.92,0000.23,0000.21,-000.34,0000.49,0000.18,-000.06,-000.11,-000.07,22.6,00.0,0624.5,30.9
2020-03-06T01:51:00Z,00000380,01000600,0000.34,0000.16,-000.24,0000.78,0000.07,-000.38,0000.14,0000.19,0000.01,22.6,00.0,0624.5,30.9
2020-03-06T01:52:00Z,00000380,01000600,-000.18,0000.31,-000.38,-000.11,-000.23,-000.01,-000.18,-000.26,-000.03,22.6,00.0,0624.5,30.9
2020-03-06T01:53:00Z,00000380,01000600,-000.30,0000.62,-000.00,-000.04,-000.31,-000.25,0000.05,0000.07,0000.04,22.6,00.0,0624.5,30.9
2020-03-06T01:54:00Z,00000380,01000600,-000.04,0000.11,-000.41,0000.39,0000.06,0000.30,-000.09,0000.03,-000.02,22.5,00.0,0624.4,30.8
2020-03-06T01:55:00Z,00000380,01000600,0000.20,0000.13,0000.40,0000.28,-000.20,-000.12,0000.03,-000.05,-000.12,22.5,00.0,0624.4,30.8
2020-03-06T01:56:00Z,00000380,01000600,0000.69,0000.25,-000.44,0001.14,0000.06,-000.19,-000.00,0000.04,0000.17,22.5,00.0,0624.4,30.8
2020-03-06T01:57:00Z,00000380,41000600,,,,,,,,,,22.6,00.0,0624.4,30.8
2020-03-06T01:58:00Z,00000380,61000600,,,,,,,,,,22.7,00.0,0623.5,30.8
2020-03-06T01:59:00Z,00000380,21000600,,,,,,,,,,22.8,00.0,0623.5,30.8
2020-03-06T02:00:00Z,00000380,21000600,,,,,,,,,,22.8,00.0,0623.5,30.8
2020-03-06T02:01:00Z,00000380,21000600,,,,,,,,,,22.8,00.0,0623.5,30.8
2020-03-06T02:02:00Z,00000380,21000600,,,,,,,,,,22.8,00.0,0623.5,30.8
2020-03-06T02:03:00Z,00000380,61000600,,,,,,,,,,22.9,00.0,0623.5,30.8
2020-03-06T02:04:00Z,00000380,41000600,0001.23,0000.42,0000.14,0000.44,0000.61,0000.28,0000.13,0000.19,0000.02,22.7,00.0,0624.3,30.8
2020-03-06T02:05:00Z,00000380,01000600,0001.42,-000.02,0000.03,-000.36,0000.25,0000.01,-000.23,-000.31,0000.02,22.6,00.0,0624.4,30.8
2020-03-06T02:06:00Z,00000380,01000600,0000.52,0000.00,0000.40,0000.17,0000.13,-000.59,0000.22,0000.28,-000.05,22.6,00.0,0624.4,30.8
2020-03-06T02:07:00Z,00000380,01000600,0000.20,-000.32,0000.07,-000.26,0000.18,0000.32,-000.19,-000.23,0000.03,22.6,00.0,0624.4,30.8
2020-03-06T02:08:00Z,00000380,01000600,0000.96,0000.24,0000.17,0000.22,0000.05,0000.11,-000.05,-000.07,-000.13,22.5,00.0,0624.4,30.8
2020-03-06T02:09:00Z,00000380,01000600,0000.19,0000.03,-000.08,0000.23,0000.02,-000.33,-000.02,0000.01,-000.03,22.5,00.0,0624.3,30.8
2020-03-06T02:10:00Z,00000380,01000600,0000.74,-000.02,-000.25,-000.19,0000.13,-000.21,0000.04,-000.00,0000.09,22.5,00.0,0624.3,30.8
2020-03-06T02:11:00Z,00000380,01000600,-000.17,-000.14,0001.15,0000.83,0000.03,-000.04,-000.04,-000.01,-000.05,22.5,00.0,0624.3,30.8
2020-03-06T02:12:00Z,00000380,01000600,0000.53,0000.26,0000.02,-000.11,0000.05,-000.06,-000.02,-000.24,0000.04,22.5,00.0,0624.2,30.8
2020-03-06T02:13:00Z,00000380,01000600,0001.17,-000.25,-000.03,0000.40,0000.23,0000.05,0000.06,-000.08,-000.21,22.5,00.0,0624.3,30.8
2020-03-06T02:14:00Z,00000380,01000600,-000.01,0000.07,0000.04,-000.34,0000.11,0000.04,0000.09,0000.03,0000.27,22.5,00.0,0624.3,30.8
2020-03-06T02:15:00Z,00000380,01000600,-000.16,0000.35,-000.00,0000.43,0000.04,0000.11,-000.21,-000.01,-000.20,22.5,00.0,0624.3,30.8
2020-03-06T02:16:00Z,00000380,01000600,0000.04,0000.28,-000.51,0000.31,0000.44,0000.17,-000.11,-000.07,0000.02,22.5,00.0,0624.4,30.8
2020-03-06T02:17:00Z,00000380,01000600,0000.59,0000.38,-000.17,0000.89,-000.33,-000.37,0000.18,0000.19,0000.01,22.5,00.0,0624.4,30.8
2020-03-06T02:18:00Z,00000380,01000600,0000.57,0000.26,0000.17,0000.61,-000.06,0000.17,-000.15,-000.19,-000.19,22.6,00.0,0624.4,30.8
2020-03-06T02:19:00Z,00000380,01000600,0001.66,0000.16,0000.40,0000.67,0000.30,-000.79,0000.09,0000.48,0000.19,22.6,00.0,0624.4,30.8
2020-03-06T02:20:00Z,00000380,01000600,0000.88,0000.50,0000.20,0000.69,0000.08,0000.19,-000.07,-000.15,0000.07,22.5,00.0,0624.3,30.8
2020-03-06T02:21:00Z,00000380,01000600,0000.24,0000.23,-000.16,-000.12,0000.16,-000.31,-000.00,-000.11,-000.02,22.5,00.0,0624.3,30.9
2020-03-06T02:22:00Z,00000380,01000600,0000.47,-000.18,0000.29,0000.03,0000.05,-000.07,-000.01,0000.17,0000.03,22.5,00.0,0624.3,30.9
2020-03-06T02:23:00Z,00000380,01000600,0000.43,0000.12,-000.10,0000.60,0000.05,-000.36,0000.04,0000.05,-000.01,22.5,00.0,0624.3,30.8
2020-03-06T02:24:00Z,00000380,01000600,0000.71,-000.23,0000.27,0000.52,0000.66,-000.12,-000.10,-000.20,-000.03,22.5,00.0,0624.3,30.8
2020-03-06T02:25:00Z,00000380,01000600,0000.40,0000.23,0000.12,0000.22,0000.16,-000.63,0000.05,0000.01,-000.17,22.5,00.0,0624.2,30.8
2020-03-06T02:26:00Z,00000380,01000600,0000.72,0000.78,0000.19,-000.21,0000.19,-000.15,-000.07,0000.06,0000.11,22.5,00.0,0624.2,30.8
2020-03-06T02:27:00Z,00000380,01000600,0000.06,0000.37,0000.03,0000.12,0000.13,-000.25,0000.11,-000.18,0000.02,22.5,00.0,0624.1,30.8
2020-03-06T02:28:00Z,00000380,01000600,-000.41,0000.07,0000.35,-000.32,-000.24,0000.09,-000.13,-000.10,0000.05,22.5,00.0,0624.1,30.8
2020-03-06T02:29:00Z,00000380,01000600,0001.47,0000.27,0000.56,0000.31,0000.17,-000.22,0000.33,0000.19,0000.07,22.5,00.0,0624.0,30.8
2020-03-06T02:30:00Z,00000380,01000600,-000.07,0000.18,0000.75,0000.18,0000.25,-000.08,0000.01,0000.30,0000.21,22.5,00.0,0624.0,30.8
2020-03-06T02:31:00Z,00000380,01000600,-000.18,0000.53,0000.13,-000.38,0000.06,-000.31,0000.10,-000.14,-000.13,22.5,00.0,0624.0,30.8
2020-03-06T02:32:00Z,00000380,01000600,0000.18,0000.27,-000.22,-000.18,-000.23,-000.45,0000.17,0000.25,0000.12,22.6,00.0,0624.0,30.8
2020-03-06T02:33:00Z,00000380,01000600,0000.84,0000.44,0000.80,-000.05,0000.57,0000.11,-000.09,-000.27,-000.13,22.6,00.0,0624.0,30.8
2020-03-06T02:34:00Z,00000380,01000600,0000.03,0000.19,0000.03,0000.05,-000.00,-000.32,0000.12,0000.36,0000.14,22.6,00.0,0624.0,30.8
2020-03-06T02:35:00Z,00000380,01000600,0000.83,-000.19,0000.44,-000.32,-000.05,0000.10,0000.17,0000.32,0000.13,22.6,00.0,0624.0,30.8
2020-03-06T02:36:00Z,00000380,01000600,0000.81,0000.30,0000.27,-000.37,0000.57,0000.00,-000.08,-000.05,-000.04,22.6,00.0,0624.0,30.8
2020-03-06T02:37:00Z,00000380,01000600,0000.75,0000.53,0000.28,0000.32,0000.28,0000.21,0000.11,0000.01,-000.05,22.5,00.0,0624.0,30.9
2020-03-06T02:38:00Z,00000380,01000600,0001.58,0000.45,0000.52,0000.67,-000.09,0000.04,-000.19,-000.05,0000.20,22.5,00.0,0624.0,30.8
2020-03-06T02:39:00Z,00000380,01000600,0001.43,-000.06,-000.40,0000.36,0000.17,-000.25,0000.18,0000.07,0000.04,22.5,00.0,0624.0,30.8
2020-03-06T02:40:00Z,00000380,01000600,-000.19,0000.39,0000.28,-000.51,0000.34,-000.04,-000.08,-000.04,-000.03,22.5,00.0,0624.0,30.8
2020-03-06T02:41:00Z,00000380,01000600,0000.25,0000.25,0000.33,0000.14,0000.11,-000.17,0000.01,0000.05,-000.14,22.5,00.0,0624.0,30.8
2020-03-06T02:42:00Z,00000380,01000600,0000.21,-000.12,0000.45,0000.23,0000.04,0000.04,-000.31,-000.43,-000.16,22.5,00.0,0624.0,30.8
2020-03-06T02:43:00Z,00000380,01000600,-000.19,0000.29,-000.38,-000.13,0000.34,-000.22,-000.16,-000.23,-000.06,22.5,00.0,0624.0,30.8
2020-03-06T02:44:00Z,00000380,01000600,0001.60,0000.59,0000.08,0000.05,0000.35,-000.01,0000.05,-000.02,-000.04,22.5,00.0,0624.0,30.8
2020-03-06T02:45:00Z,00000380,01000600,-000.53,0000.26,0000.15,-000.07,0000.14,-000.08,-000.05,-000.10,-000.13,22.5,00.0,0624.0,30.8
2020-03-06T02:46:00Z,00000380,01000600,0001.12,0000.40,0000.62,0000.15,0000.22,-000.30,0000.09,0000.12,0000.22,22.6,00.0,0624.0,30.8
2020-03-06T02:47:00Z,00000380,01000600,0001.69,0000.72,-000.12,-000.22,0000.24,-000.13,-000.13,-000.14,-000.13,22.6,00.0,0624.0,30.8
2020-03-06T02:48:00Z,00000380,01000600,0001.07,0000.50,0000.83,0000.86,0000.00,-000.23,0000.04,0000.30,-000.10,22.6,00.0,0624.0,30.8
2020-03-06T02:49:00Z,00000380,01000600,0001.49,0000.59,0000.12,-000.34,-000.04,-000.08,0000.26,0000.28,0000.25,22.6,00.0,0624.0,30.8
2020-03-06T02:50:00Z,00000380,01000600,0000.96,0000.46,-000.21,0000.35,0000.19,0000.18,-000.06,-000.16,0000.16,22.6,00.0,0623.9,30.8
2020-03-06T02:51:00Z,00000380,01000600,0000.34,-000.03,0000.14,0000.54,0000.13,-000.39,0000.12,0000.15,0000.05,22.6,00.0,0623.9,30.8
2020-03-06T02:52:00Z,00000380,01000600,0001.34,0000.23,0000.33,-000.44,0000.24,-000.10,-000.02,-000.05,-000.08,22.6,00.0,0623.9,30.8
2020-03-06T02:53:00Z,00000380,01000600,0000.21,-000.10,-000.49,0000.50,0000.01,-000.26,0000.03,-000.08,0000.04,22.6,00.0,0623.9,30.8
2020-03-06T02:54:00Z,00000380,01000600,-000.28,0000.25,0000.14,0000.04,0000.51,-000.22,-000.03,0000.18,0000.01,22.6,00.0,0623.8,30.8
2020-03-06T02:55:00Z,00000380,01000600,-000.34,0000.84,-000.22,0000.66,0000.27,-000.60,0000.09,0000.01,0000.19,22.5,00.0,0623.8,30.9
2020-03-06T02:56:00Z,00000380,01000600,0001.15,-000.08,-000.25,-000.73,-000.26,-000.06,0000.11,0000.15,-000.25,22.5,00.0,0623.8,30.8
2020-03-06T02:57:00Z,00000380,41000600,,,,,,,,,,22.6,00.0,0623.7,30.8
2020-03-06T02:58:00Z,00000380,61000600,,,,,,,,,,22.7,00.0,0622.8,30.8
2020-03-06T02:59:00Z,00000380,21000600,,,,,,,,,,22.8,00.0,0622.8,30.8
2020-03-06T03:00:00Z,00000380,21000600,,,,,,,,,,22.8,00.0,0622.8,30.8
2020-03-06T03:01:00Z,00000380,21000600,,,,,,,,,,22.8,00.0,0622.8,30.8
2020-03-06T03:02:00Z,00000380,21000600,,,,,,,,,,22.9,00.0,0622.8,30.8
2020-03-06T03:03:00Z,00000380,61000600,,,,,,,,,,22.9,00.0,0622.8,30.8
2020-03-06T03:04:00Z,00000380,41000600,-000.42,0000.42,0000.04,-000.11,0000.51,-000.13,0000.12,0000.02,0000.09,22.7,00.0,0623.7,30.8
2020-03-06T03:05:00Z,00000380,01000600,0000.11,0000.40,-000.01,0000.76,0000.26,-000.06,-000.02,-000.15,0000.01,22.7,00.0,0623.7,30.9
2020-03-06T03:06:00Z,00000380,01000600,0000.22,0000.14,-000.02,0000.52,0000.35,-000.64,0000.08,0000.05,0000.02,22.7,00.0,0623.7,30.9
2020-03-06T03:07:00Z,00000380,01000600,0001.29,0001.19,-000.39,0000.03,0000.20,0000.14,0000.08,0000.21,0000.04,22.6,00.0,0623.7,30.9
2020-03-06T03:08:00Z,00000380,01000600,-000.50,0000.64,-000.26,0000.82,0000.67,0000.02,-000.05,0000.09,-000.02,22.6,00.0,0623.6,30.9
2020-03-06T03:09:00Z,00000380,01000600,-000.35,0000.62,-000.11,-000.12,0000.48,-000.30,0000.07,0000.06,-000.04,22.6,00.0,0623.6,30.9
2020-03-06T03:10:00Z,00000380,01000600,-000.35,0000.39,-000.21,0000.38,-000.29,0000.07,0000.07,0000.14,0000.20,22.6,00.0,0623.5,30.9